Simultaneous Nadir Overpasses (SNOs) Predictions

Prediction of SNOs between NOAA-19 and TERRA Satellite Orbit:

Table of predicted SNOs for the next 14.0 days since TLE Epoch: 11/25/2011
Index Date Time (NOAA-19) NOAA-19 Lat,Lon TERRA Lat,Lon Distance(km) Time Diff (sec)
1 11/26/2011 23:18:10 70.68,-172.94 70.61,-168.17 176.16 58
2 11/27/2011 00:08:36 -68.89, -2.97 -68.89, -2.92 1.93 31
3 11/27/2011 00:59:38 68.70, 164.52 68.68, 164.46 3.42 62
4 11/27/2011 01:49:40 -65.57, -24.49 -65.59, -31.31 313.26 41
5 11/29/2011 04:02:43 69.54, 117.62 69.42, 119.05 57.39 69
6 11/29/2011 04:53:29 -68.83, -74.10 -68.81, -74.12 2.10 2
7 11/29/2011 05:44:19 67.97, 94.26 68.04, 92.59 70.34 69
8 12/01/2011 07:57:22 -72.20,-125.38 -72.14,-115.46 337.47 37
9 12/01/2011 08:47:26 68.94, 47.26 68.93, 47.32 2.30 57
10 12/01/2011 09:38:22 -68.78,-145.26 -68.77,-145.26 1.06 28
11 12/01/2011 10:28:51 66.76, 24.50 66.81, 20.12 192.09 57
12 12/03/2011 12:41:50 -70.88, 165.82 -70.79, 171.20 196.61 56
13 12/03/2011 13:32:19 68.88, -23.88 68.87, -23.85 1.47 27
14 12/03/2011 14:23:14 -68.69, 143.63 -68.71, 143.58 3.14 57
15 12/03/2011 15:13:18 65.28, -45.13 65.32, -52.46 340.36 36
16 12/05/2011 17:26:22 -69.76, 96.39 -69.62, 98.41 79.60 67
17 12/05/2011 18:17:11 68.78, -94.98 68.80, -95.03 2.89 2
18 12/05/2011 19:07:58 -68.19, 73.07 -68.25, 71.92 47.85 71
19 12/07/2011 21:21:00 71.97,-145.87 71.94,-136.72 314.91 40
20 12/07/2011 22:10:59 -68.91, 26.40 -68.93, 26.40 1.68 64
21 12/07/2011 23:02:04 68.76,-166.17 68.76,-166.16 0.80 33




NCC Satellite Simultaneous Nadir Overpasses (SNOs) Prediction Service
